CZ-4C DEB, 39015

Orbit data source: Space-Track

CZ-4C DEB, 39015 is space debris in LEO originally from a launch on Sun, 25 Nov 2012 UTC launched from the Jiuquan Satellite Launch Center, China (JSC). Debris objects in space refer to the collection of defunct objects orbiting the Earth. Examples of debris include non-operational satellites, rocket bodies, and fragments generated from explosions, collisions, or faulty payload assembly.

Loading next visibility...
Identifier
39015, 2012-066E
Orbit
LEO
Country
Flag of CNCN / PRC
Related business
Manufacturer
CAST
Mission
Spacecraft
Bus & Motor
Unknown
Mass
Unknown
Launch date (UTC)
2012-11-25 (14 years ago)
Launch vehicle
Unknown
Launch site
Jiuquan Satellite Launch Center, China (JSC)
Object type
Payload
Rocket body
Debris
Shape & HBR
Unknown shape, 2.5 m
Radar Cross Section
Large (>1 m²)

Expand to show TLE details & history
Last TLE update: 2 days ago

TLE from 2 days ago
0 CZ-4C DEB
1 39015U 12066E   26171.39820559 -.00000070  00000-0  19581-4 0  9997
2 39015  63.3555 303.1830 0442178  27.8144 334.5783 13.45056365666051
Epoch: 2026-06-20T09:33Z
TLE epoch observation values (Epoch: 2026-06-20T09:33:24.962Z)
Latitude
-0.00007°
Longitude
-108.78445°
Altitude
796.826 km
Speed
7.602 km/s
True Right ascension
20h 12m 43s
True Declination
0° 00' 00"
Sunlit
Object was in full shadow at epoch
Visualization orbit readout
Latitude
Unknown
Longitude
Unknown
Altitude
Unknown
Speed
Unknown
Apparent Right ascension
Unknown
Apparent Declination
Unknown
Sunlit
N/A
Visualization observer readout
Local Sidereal Time
00:39:54
Azimuth
Unknown
Elevation
Unknown
Doppler factor
Unknown
Orbital elements
Apogee altitude
1,419.53 km
Perigee altitude
759.139 km
Semi-major axis
7,467.472 km
Eccentricity
0.04422
Inclination
63.3555°
RAAN
303.183°
Arg. of periapsis
27.8144°
True anomaly
332.28974°
Mean anomaly
334.5783°
Eccentric anomaly
333.44571°
Mean motion
3.36343 °/min
Orbital period
107.03 mins
BSTAR
0.000019581
Loading maneuver chart data...
Computing Atmospheric mass density...
Loading historical data...
Loading historical data...
Loading historical data...
Loading historical data...
Loading historical data...
Loading historical data...
Loading historical data...

Documentation

Showing up to 5 results
|